FW2308 Weather Reports


time (UTC)temp
C
wind
direction
speed
KPH
gust
KPH
rain 1hr
cm
rain 24hr
cm
rain mn
cm
humidity
%
barometer
mb
20260504050023 12 231 0.0 0.0 0.00 0.00 0.00 56 1017.5
20260504044527 13 231 0.0 0.0 0.00 0.00 0.00 55 1017.5
20260504043017 14 231 0.0 0.0 0.00 0.00 0.00 53 1017.5
20260504041516 14 231 0.0 0.0 0.00 0.00 0.00 52 1017.6
20260504040013 14 231 0.0 1.6 0.00 0.00 0.00 52 1017.7
20260504034513 13 230 0.0 0.0 0.00 0.00 0.00 53 1017.6
20260504033013 13 230 0.0 1.6 0.00 0.00 0.00 53 1017.6
20260504030025 12 197 0.0 0.0 0.00 0.00 0.00 56 1017.5
20260504024508 12 210 0.0 0.0 0.00 0.00 0.00 57 1017.5
20260504023006 12 210 0.0 0.0 0.00 0.00 0.00 57 1017.5
20260504021505 12 210 0.0 0.0 0.00 0.00 0.00 58 1017.2
20260504020007 12 210 0.0 0.0 0.00 0.00 0.00 58 1016.8
20260504014605 13 210 0.0 0.0 0.00 0.00 0.00 56 1016.6
20260504013005 13 210 0.0 0.0 0.00 0.00 0.00 54 1016.5
20260504011502 14 210 0.0 0.0 0.00 0.00 0.00 52 1016.4
20260504010003 15 210 0.0 0.0 0.00 0.00 0.00 50 1016.3
20260504004505 15 210 0.0 0.0 0.00 0.00 0.00 48 1016.2
20260504003003 16 210 0.0 0.0 0.00 0.00 0.00 46 1016.1
20260504001613 17 210 0.0 0.0 0.00 0.00 0.00 43 1016.0
20260504000101 17 210 0.0 0.0 0.00 0.00 0.00 41 1015.8
20260503234559 18 210 0.0 0.0 0.00 0.00 0.00 39 1015.7
20260503233059 19 214 0.0 0.0 0.00 0.00 0.00 36 1015.8
20260503231558 20 166 0.0 1.6 0.00 0.00 0.00 35 1015.8
20260503224555 20 167 0.0 6.4 0.00 0.00 0.00 35 1016.0
20260503223058 20 208 1.6 6.4 0.00 0.00 0.00 35 1015.9
20260503221554 20 55 0.0 4.8 0.00 0.00 0.00 35 1016.0
20260503220051 21 297 0.0 4.8 0.00 0.00 0.00 35 1016.2
20260503214550 20 308 0.0 6.4 0.00 0.00 0.00 35 1016.4
20260503213103 20 123 0.0 6.4 0.00 0.00 0.00 35 1016.5
20260503211548 20 234 0.0 3.2 0.00 0.00 0.00 34 1016.6
20260503210056 21 300 0.0 4.8 0.00 0.00 0.00 32 1016.7
20260503204552 20 170 1.6 8.0 0.00 0.00 0.00 33 1016.8
20260503203046 20 176 0.0 6.4 0.00 0.00 0.00 35 1017.0
20260503201546 20 15 0.0 6.4 0.00 0.00 0.00 34 1017.2
20260503200051 20 304 0.0 6.4 0.00 0.00 0.00 32 1017.6
20260503194547 20 110 3.2 12.9 0.00 0.00 0.00 33 1017.7
20260503193052 21 160 0.0 8.0 0.00 0.00 0.00 35 1018.2
20260503191545 21 95 1.6 8.0 0.00 0.00 0.00 34 1018.4
20260503190043 21 165 0.0 8.0 0.00 0.00 0.00 35 1018.7
20260503184551 21 303 0.0 3.2 0.00 0.00 0.00 40 1019.0
20260503183058 21 169 0.0 16.1 0.00 0.00 0.00 41 1019.0
20260503181538 21 309 0.0 6.4 0.00 0.00 0.00 42 1019.2
20260503180041 18 39 1.6 11.3 0.00 0.00 0.00 48 1019.3
20260503174535 18 8 3.2 11.3 0.00 0.00 0.00 50 1019.3
20260503173054 17 129 3.2 9.7 0.00 0.00 0.00 47 1019.6
20260503171528 17 82 3.2 9.7 0.00 0.00 0.00 50 1019.7
20260503120111 13 226 0.0 0.0 0.00 0.00 0.00 70 1020.2
20260503081520 7 226 0.0 0.0 0.00 0.05 0.00 90 1017.5
20260503071511 8 226 0.0 0.0 0.00 0.05 0.00 92 1017.0